Location: Isola Pescaroli
(45.0500°N, 10.1667°E)
Time: 01:20:52
(UTC+00:00)

SL-4 R/B - Pass Details

Date: 23 June 2021
Orbit: 428 x 662 km, 51.6° (Epoch: 29 July)

Event Time Altitude Azimuth Distance (km) Brightness Sun altitude
Rises 02:39:49 0° 297° (WNW) 2,518 5.2 -8.0°
Reaches altitude 10° 02:42:04 10° 292° (WNW) 1,605 4.2 -7.7°
Maximum altitude 02:45:33 49° 217° (SW) 577 1.7 -7.3°
Drops below altitude 10° 02:48:52 10° 141° (SE) 1,529 4.3 -6.9°
Sets 02:50:58 0° 136° (SE) 2,383 5.3 -6.6°
